Wetterdaten: aktuell Donnerstag, 09.02.2023 03:13
Datum Zeit Temp. I. Temp. 2m Temp. 5cm LF I. Luftf.2m Luftdruck Regen Wind Richtung Richtung Taupunkt Windchill Windben
09.02.2023 03:13 11,3 C -3,1 C -3,1 C 45 % 59 % 1031,9 hPa 0,0 l/m 0,0 km/h (0 Bft) O 90 -10,0 C -3,1 C 0,0 km/h (0 Bft)
09.02.2023 03:12 11,3 C -3,1 C -3,0 C 45 % 59 % 1032,1 hPa 0,0 l/m 0,0 km/h (0 Bft) O-SO 112 -10,0 C -3,1 C 0,0 km/h (0 Bft)
09.02.2023 03:11 11,3 C -3,1 C -3,0 C 45 % 59 % 1032,1 hPa 0,0 l/m 0,0 km/h (0 Bft) O-SO 112 -10,0 C -3,1 C 0,0 km/h (0 Bft)
09.02.2023 03:10 11,2 C -3,1 C -3,0 C 45 % 59 % 1032,1 hPa 0,0 l/m 0,0 km/h (0 Bft) O-SO 112 -10,0 C -3,1 C 0,0 km/h (0 Bft)
09.02.2023 03:09 11,2 C -3,1 C -3,0 C 45 % 59 % 1032,1 hPa 0,0 l/m 0,0 km/h (0 Bft) O-SO 112 -10,0 C -3,1 C 0,0 km/h (0 Bft)
09.02.2023 03:08 11,3 C -3,1 C -3,0 C 45 % 59 % 1032,1 hPa 0,0 l/m 0,0 km/h (0 Bft) O-SO 112 -10,0 C -3,1 C 0,0 km/h (0 Bft)
09.02.2023 03:07 11,3 C -3,1 C -3,0 C 45 % 59 % 1032,1 hPa 0,0 l/m 0,0 km/h (0 Bft) O-SO 112 -10,0 C -3,1 C 0,0 km/h (0 Bft)
09.02.2023 03:06 11,2 C -3,1 C -3,0 C 45 % 59 % 1032,1 hPa 0,0 l/m 0,0 km/h (0 Bft) O-SO 112 -10,0 C -3,1 C 0,0 km/h (0 Bft)
09.02.2023 03:05 11,2 C -3,1 C -3,0 C 45 % 59 % 1032,1 hPa 0,0 l/m 0,0 km/h (0 Bft) O-SO 112 -10,0 C -3,1 C 0,0 km/h (0 Bft)
09.02.2023 03:04 11,2 C -3,1 C -3,0 C 45 % 59 % 1032,1 hPa 0,0 l/m 0,0 km/h (0 Bft) O-SO 112 -10,0 C -3,1 C 0,0 km/h (0 Bft)
09.02.2023 03:03 11,2 C -3,1 C -3,0 C 45 % 59 % 1032,1 hPa 0,0 l/m 0,0 km/h (0 Bft) O-SO 112 -10,0 C -3,1 C 0,0 km/h (0 Bft)
09.02.2023 03:02 11,3 C -3,1 C -3,0 C 45 % 59 % 1032,1 hPa 0,0 l/m 0,0 km/h (0 Bft) NO 45 -10,0 C -3,1 C 0,0 km/h (0 Bft)
09.02.2023 03:01 11,3 C -3,1 C -3,0 C 45 % 59 % 1032,1 hPa 0,0 l/m 0,0 km/h (0 Bft) NO 45 -10,0 C -3,1 C 0,0 km/h (0 Bft)
09.02.2023 03:00 11,2 C -3,1 C -3,0 C 45 % 59 % 1032,1 hPa 0,0 l/m 0,0 km/h (0 Bft) O 90 -10,0 C -3,1 C 0,0 km/h (0 Bft)
09.02.2023 02:59 11,2 C -3,1 C -3,0 C 45 % 59 % 1032,1 hPa 0,0 l/m 0,0 km/h (0 Bft) O 90 -10,0 C -3,1 C 0,0 km/h (0 Bft)
09.02.2023 02:58 11,2 C -3,1 C -3,0 C 45 % 59 % 1032,1 hPa 0,0 l/m 0,0 km/h (0 Bft) SO 135 -10,0 C -3,1 C 0,0 km/h (0 Bft)
09.02.2023 02:57 11,2 C -3,1 C -3,0 C 45 % 59 % 1032,1 hPa 0,0 l/m 0,0 km/h (0 Bft) SO 135 -10,0 C -3,1 C 0,0 km/h (0 Bft)
09.02.2023 02:56 11,2 C -3,0 C -3,0 C 45 % 59 % 1032,1 hPa 0,0 l/m 0,0 km/h (0 Bft) O-SO 112 -9,9 C -3,0 C 0,0 km/h (0 Bft)
09.02.2023 02:55 11,2 C -3,0 C -3,0 C 45 % 59 % 1032,1 hPa 0,0 l/m 0,0 km/h (0 Bft) O-SO 112 -9,9 C -3,0 C 0,0 km/h (0 Bft)
09.02.2023 02:54 11,2 C -3,0 C -2,8 C 45 % 59 % 1032,1 hPa 0,0 l/m 0,0 km/h (0 Bft) O 90 -9,9 C -3,0 C 0,0 km/h (0 Bft)
09.02.2023 02:53 11,2 C -3,0 C -2,8 C 45 % 59 % 1032,1 hPa 0,0 l/m 0,0 km/h (0 Bft) O 90 -9,9 C -3,0 C 0,0 km/h (0 Bft)
09.02.2023 02:52 11,4 C -3,1 C -2,8 C 45 % 59 % 1032,4 hPa 0,0 l/m 0,0 km/h (0 Bft) O 90 -10,0 C -3,1 C 0,0 km/h (0 Bft)
09.02.2023 02:51 11,4 C -3,1 C -2,8 C 45 % 59 % 1032,4 hPa 0,0 l/m 0,0 km/h (0 Bft) O 90 -10,0 C -3,1 C 0,0 km/h (0 Bft)
09.02.2023 02:50 11,4 C -3,1 C -3,0 C 45 % 59 % 1032,4 hPa 0,0 l/m 0,0 km/h (0 Bft) N-NO 22 -10,0 C -3,1 C 0,0 km/h (0 Bft)
09.02.2023 02:49 11,4 C -3,1 C -3,0 C 45 % 59 % 1032,4 hPa 0,0 l/m 0,0 km/h (0 Bft) N-NO 22 -10,0 C -3,1 C 0,0 km/h (0 Bft)
09.02.2023 02:48 11,4 C -3,1 C -3,1 C 45 % 59 % 1032,4 hPa 0,0 l/m 0,0 km/h (0 Bft) O 90 -10,0 C -3,1 C 0,0 km/h (0 Bft)
09.02.2023 02:47 11,4 C -3,1 C -3,1 C 45 % 59 % 1032,4 hPa 0,0 l/m 0,0 km/h (0 Bft) O 90 -10,0 C -3,1 C 0,0 km/h (0 Bft)
09.02.2023 02:46 11,4 C -3,1 C -3,1 C 45 % 59 % 1032,4 hPa 0,0 l/m 0,0 km/h (0 Bft) O 90 -10,0 C -3,1 C 0,0 km/h (0 Bft)
09.02.2023 02:45 11,4 C -3,1 C -3,1 C 45 % 59 % 1032,4 hPa 0,0 l/m 0,0 km/h (0 Bft) O 90 -10,0 C -3,1 C 0,0 km/h (0 Bft)
09.02.2023 02:44 11,4 C -3,1 C -3,1 C 45 % 59 % 1032,4 hPa 0,0 l/m 0,0 km/h (0 Bft) O-SO 112 -10,0 C -3,1 C 0,0 km/h (0 Bft)
09.02.2023 02:43 11,4 C -3,1 C -3,1 C 45 % 59 % 1032,4 hPa 0,0 l/m 0,0 km/h (0 Bft) O-SO 112 -10,0 C -3,1 C 0,0 km/h (0 Bft)
09.02.2023 02:42 11,4 C -3,1 C -3,1 C 45 % 59 % 1032,4 hPa 0,0 l/m 0,2 km/h (0 Bft) O 90 -10,0 C -3,1 C 0,0 km/h (0 Bft)
09.02.2023 02:41 11,4 C -3,1 C -3,1 C 45 % 59 % 1032,4 hPa 0,0 l/m 0,2 km/h (0 Bft) O 90 -10,0 C -3,1 C 0,0 km/h (0 Bft)
09.02.2023 02:40 11,4 C -3,1 C -3,1 C 45 % 59 % 1032,4 hPa 0,0 l/m 0,2 km/h (0 Bft) O 90 -10,0 C -3,1 C 0,0 km/h (0 Bft)
09.02.2023 02:39 11,4 C -3,1 C -3,1 C 45 % 59 % 1032,4 hPa 0,0 l/m 0,2 km/h (0 Bft) O 90 -10,0 C -3,1 C 0,0 km/h (0 Bft)
09.02.2023 02:38 11,4 C -3,0 C -3,1 C 45 % 59 % 1032,4 hPa 0,0 l/m 0,2 km/h (0 Bft) O-NO 67 -9,9 C -3,0 C 2,1 km/h (1 Bft)
09.02.2023 02:37 11,4 C -3,0 C -3,1 C 45 % 59 % 1032,4 hPa 0,0 l/m 0,2 km/h (0 Bft) O-NO 67 -9,9 C -3,0 C 2,1 km/h (1 Bft)
09.02.2023 02:36 11,3 C -3,0 C -3,1 C 45 % 59 % 1032,4 hPa 0,0 l/m 0,0 km/h (0 Bft) O-NO 67 -9,9 C -3,0 C 0,0 km/h (0 Bft)
09.02.2023 02:35 11,3 C -3,0 C -3,1 C 45 % 59 % 1032,4 hPa 0,0 l/m 0,0 km/h (0 Bft) O-NO 67 -9,9 C -3,0 C 0,0 km/h (0 Bft)
09.02.2023 02:34 11,3 C -3,0 C -3,1 C 45 % 59 % 1032,4 hPa 0,0 l/m 0,0 km/h (0 Bft) O 90 -9,9 C -3,0 C 0,0 km/h (0 Bft)
09.02.2023 02:33 11,3 C -3,0 C -3,1 C 45 % 59 % 1032,4 hPa 0,0 l/m 0,0 km/h (0 Bft) O 90 -9,9 C -3,0 C 0,0 km/h (0 Bft)
09.02.2023 02:32 11,3 C -3,0 C -3,0 C 45 % 59 % 1032,7 hPa 0,0 l/m 0,0 km/h (0 Bft) O-NO 67 -9,9 C -3,0 C 0,0 km/h (0 Bft)
09.02.2023 02:31 11,3 C -3,0 C -3,0 C 45 % 59 % 1032,7 hPa 0,0 l/m 0,0 km/h (0 Bft) O-NO 67 -9,9 C -3,0 C 0,0 km/h (0 Bft)
09.02.2023 02:30 11,3 C -3,0 C -3,0 C 45 % 59 % 1032,7 hPa 0,0 l/m 0,0 km/h (0 Bft) O-SO 112 -9,9 C -3,0 C 2,9 km/h (1 Bft)
09.02.2023 02:29 11,3 C -3,0 C -3,0 C 45 % 59 % 1032,7 hPa 0,0 l/m 0,0 km/h (0 Bft) O-SO 112 -9,9 C -3,0 C 2,9 km/h (1 Bft)
09.02.2023 02:28 11,5 C -3,0 C -3,0 C 45 % 59 % 1032,7 hPa 0,0 l/m 0,0 km/h (0 Bft) N-NO 22 -9,9 C -3,0 C 0,0 km/h (0 Bft)
09.02.2023 02:27 11,5 C -3,0 C -3,0 C 45 % 59 % 1032,7 hPa 0,0 l/m 0,0 km/h (0 Bft) N-NO 22 -9,9 C -3,0 C 0,0 km/h (0 Bft)
09.02.2023 02:26 11,5 C -2,8 C -2,8 C 45 % 59 % 1032,7 hPa 0,0 l/m 0,0 km/h (0 Bft) O 90 -9,7 C -2,8 C 0,0 km/h (0 Bft)
09.02.2023 02:25 11,5 C -2,8 C -2,8 C 45 % 59 % 1032,7 hPa 0,0 l/m 0,0 km/h (0 Bft) O 90 -9,7 C -2,8 C 0,0 km/h (0 Bft)
09.02.2023 02:24 11,5 C -2,8 C -2,7 C 45 % 59 % 1032,7 hPa 0,0 l/m 0,0 km/h (0 Bft) O 90 -9,7 C -2,8 C 0,0 km/h (0 Bft)
09.02.2023 02:23 11,5 C -2,8 C -2,7 C 45 % 59 % 1032,7 hPa 0,0 l/m 0,0 km/h (0 Bft) O 90 -9,7 C -2,8 C 0,0 km/h (0 Bft)
09.02.2023 02:22 11,5 C -2,8 C -2,7 C 45 % 59 % 1032,7 hPa 0,0 l/m 0,0 km/h (0 Bft) O 90 -9,7 C -2,8 C 0,0 km/h (0 Bft)
09.02.2023 02:21 11,5 C -2,8 C -2,7 C 45 % 59 % 1032,7 hPa 0,0 l/m 0,0 km/h (0 Bft) O 90 -9,7 C -2,8 C 0,0 km/h (0 Bft)
09.02.2023 02:20 11,5 C -2,8 C -2,8 C 45 % 59 % 1032,7 hPa 0,0 l/m 0,0 km/h (0 Bft) O 90 -9,7 C -2,8 C 0,0 km/h (0 Bft)
09.02.2023 02:19 11,5 C -2,8 C -2,8 C 45 % 59 % 1032,7 hPa 0,0 l/m 0,0 km/h (0 Bft) O 90 -9,7 C -2,8 C 0,0 km/h (0 Bft)
09.02.2023 02:18 11,4 C -2,8 C -2,7 C 45 % 59 % 1032,7 hPa 0,0 l/m 0,0 km/h (0 Bft) SO 135 -9,7 C -2,8 C 0,0 km/h (0 Bft)
09.02.2023 02:17 11,4 C -2,8 C -2,7 C 45 % 59 % 1032,7 hPa 0,0 l/m 0,0 km/h (0 Bft) SO 135 -9,7 C -2,8 C 0,0 km/h (0 Bft)
09.02.2023 02:16 11,4 C -2,8 C -2,6 C 45 % 59 % 1032,7 hPa 0,0 l/m 0,0 km/h (0 Bft) N 360 -9,7 C -2,8 C 0,0 km/h (0 Bft)
09.02.2023 02:15 11,4 C -2,8 C -2,6 C 45 % 59 % 1032,7 hPa 0,0 l/m 0,0 km/h (0 Bft) N 360 -9,7 C -2,8 C 0,0 km/h (0 Bft)
09.02.2023 02:14 11,4 C -2,8 C -2,6 C 45 % 59 % 1032,7 hPa 0,0 l/m 0,0 km/h (0 Bft) O 90 -9,7 C -2,8 C 0,0 km/h (0 Bft)
09.02.2023 02:13 11,4 C -2,8 C -2,6 C 45 % 59 % 1032,7 hPa 0,0 l/m 0,0 km/h (0 Bft) O 90 -9,7 C -2,8 C 0,0 km/h (0 Bft)
09.02.2023 02:12 11,6 C -2,8 C -2,7 C 45 % 59 % 1032,9 hPa 0,0 l/m 0,0 km/h (0 Bft) NO 45 -9,7 C -2,8 C 0,0 km/h (0 Bft)
09.02.2023 02:11 11,6 C -2,8 C -2,7 C 45 % 59 % 1032,9 hPa 0,0 l/m 0,0 km/h (0 Bft) NO 45 -9,7 C -2,8 C 0,0 km/h (0 Bft)
09.02.2023 02:10 11,6 C -2,8 C -2,4 C 45 % 59 % 1032,9 hPa 0,0 l/m 0,0 km/h (0 Bft) O 90 -9,7 C -2,8 C 0,0 km/h (0 Bft)
09.02.2023 02:09 11,6 C -2,8 C -2,4 C 45 % 59 % 1032,9 hPa 0,0 l/m 0,0 km/h (0 Bft) O 90 -9,7 C -2,8 C 0,0 km/h (0 Bft)
09.02.2023 02:08 11,6 C -2,8 C -2,7 C 45 % 59 % 1032,9 hPa 0,0 l/m 0,0 km/h (0 Bft) O 90 -9,7 C -2,8 C 0,0 km/h (0 Bft)
09.02.2023 02:07 11,6 C -2,8 C -2,7 C 45 % 59 % 1032,9 hPa 0,0 l/m 0,0 km/h (0 Bft) O 90 -9,7 C -2,8 C 0,0 km/h (0 Bft)
09.02.2023 02:06 11,6 C -2,8 C -2,6 C 45 % 59 % 1032,9 hPa 0,0 l/m 0,0 km/h (0 Bft) O-NO 67 -9,7 C -2,8 C 0,0 km/h (0 Bft)
09.02.2023 02:05 11,6 C -2,8 C -2,6 C 45 % 59 % 1032,9 hPa 0,0 l/m 0,0 km/h (0 Bft) O-NO 67 -9,7 C -2,8 C 0,0 km/h (0 Bft)
09.02.2023 02:04 11,6 C -2,8 C -2,6 C 45 % 59 % 1032,9 hPa 0,0 l/m 0,0 km/h (0 Bft) O 90 -9,7 C -2,8 C 0,0 km/h (0 Bft)
09.02.2023 02:03 11,6 C -2,8 C -2,6 C 45 % 59 % 1032,9 hPa 0,0 l/m 0,0 km/h (0 Bft) O 90 -9,7 C -2,8 C 0,0 km/h (0 Bft)
09.02.2023 02:02 11,6 C -2,8 C -2,7 C 45 % 59 % 1032,9 hPa 0,0 l/m 0,0 km/h (0 Bft) O-SO 112 -9,7 C -2,8 C 0,0 km/h (0 Bft)
09.02.2023 02:01 11,6 C -2,8 C -2,7 C 45 % 59 % 1032,9 hPa 0,0 l/m 0,0 km/h (0 Bft) O-SO 112 -9,7 C -2,8 C 0,0 km/h (0 Bft)
09.02.2023 02:00 11,6 C -2,8 C -2,8 C 45 % 59 % 1032,9 hPa 0,0 l/m 0,2 km/h (0 Bft) O 90 -9,7 C -2,8 C 0,0 km/h (0 Bft)
09.02.2023 01:59 11,6 C -2,8 C -2,8 C 45 % 59 % 1032,9 hPa 0,0 l/m 0,2 km/h (0 Bft) O 90 -9,7 C -2,8 C 0,0 km/h (0 Bft)
09.02.2023 01:58 11,6 C -2,8 C -3,0 C 45 % 59 % 1032,9 hPa 0,0 l/m 0,2 km/h (0 Bft) O 90 -9,7 C -2,8 C 0,0 km/h (0 Bft)
09.02.2023 01:57 11,6 C -2,8 C -3,0 C 45 % 59 % 1032,9 hPa 0,0 l/m 0,2 km/h (0 Bft) O 90 -9,7 C -2,8 C 0,0 km/h (0 Bft)
09.02.2023 01:56 11,6 C -2,8 C -2,8 C 45 % 59 % 1032,9 hPa 0,0 l/m 0,2 km/h (0 Bft) O 90 -9,7 C -2,8 C 0,0 km/h (0 Bft)
09.02.2023 01:55 11,6 C -2,8 C -2,8 C 45 % 59 % 1032,9 hPa 0,0 l/m 0,2 km/h (0 Bft) O 90 -9,7 C -2,8 C 0,0 km/h (0 Bft)
09.02.2023 01:54 11,6 C -2,8 C -2,8 C 45 % 59 % 1032,9 hPa 0,0 l/m 0,2 km/h (0 Bft) O 90 -9,7 C -2,8 C 0,0 km/h (0 Bft)
09.02.2023 01:53 11,6 C -2,8 C -2,8 C 45 % 59 % 1032,9 hPa 0,0 l/m 0,2 km/h (0 Bft) O 90 -9,7 C -2,8 C 0,0 km/h (0 Bft)
09.02.2023 01:52 11,6 C -2,8 C -2,8 C 45 % 59 % 1033,3 hPa 0,0 l/m 0,2 km/h (0 Bft) O 90 -9,7 C -2,8 C 0,0 km/h (0 Bft)
09.02.2023 01:51 11,6 C -2,8 C -2,8 C 45 % 59 % 1033,3 hPa 0,0 l/m 0,2 km/h (0 Bft) O 90 -9,7 C -2,8 C 0,0 km/h (0 Bft)
09.02.2023 01:50 11,6 C -2,8 C -2,8 C 45 % 59 % 1033,3 hPa 0,0 l/m 0,2 km/h (0 Bft) O 90 -9,7 C -2,8 C 2,1 km/h (1 Bft)
09.02.2023 01:49 11,6 C -2,8 C -2,8 C 45 % 59 % 1033,3 hPa 0,0 l/m 0,2 km/h (0 Bft) O 90 -9,7 C -2,8 C 2,1 km/h (1 Bft)
09.02.2023 01:48 11,7 C -2,7 C -2,8 C 45 % 59 % 1033,3 hPa 0,0 l/m 0,2 km/h (0 Bft) O 90 -9,6 C -2,7 C 2,1 km/h (1 Bft)
09.02.2023 01:47 11,7 C -2,7 C -2,8 C 45 % 59 % 1033,3 hPa 0,0 l/m 0,2 km/h (0 Bft) O 90 -9,6 C -2,7 C 2,1 km/h (1 Bft)
09.02.2023 01:46 11,7 C -2,7 C -2,7 C 45 % 59 % 1033,3 hPa 0,0 l/m 0,2 km/h (0 Bft) O-SO 112 -9,6 C -2,7 C 0,0 km/h (0 Bft)
09.02.2023 01:45 11,7 C -2,7 C -2,7 C 45 % 59 % 1033,3 hPa 0,0 l/m 0,2 km/h (0 Bft) O-SO 112 -9,6 C -2,7 C 0,0 km/h (0 Bft)
09.02.2023 01:44 11,6 C -2,7 C -2,7 C 45 % 59 % 1033,3 hPa 0,0 l/m 0,0 km/h (0 Bft) O 90 -9,6 C -2,7 C 2,3 km/h (1 Bft)
09.02.2023 01:43 11,6 C -2,7 C -2,7 C 45 % 59 % 1033,3 hPa 0,0 l/m 0,0 km/h (0 Bft) O 90 -9,6 C -2,7 C 2,3 km/h (1 Bft)
09.02.2023 01:42 11,6 C -2,7 C -2,6 C 45 % 59 % 1033,3 hPa 0,0 l/m 0,0 km/h (0 Bft) O 90 -9,6 C -2,7 C 0,0 km/h (0 Bft)
09.02.2023 01:41 11,6 C -2,7 C -2,6 C 45 % 59 % 1033,3 hPa 0,0 l/m 0,0 km/h (0 Bft) O 90 -9,6 C -2,7 C 0,0 km/h (0 Bft)
09.02.2023 01:40 11,6 C -2,7 C -2,6 C 45 % 59 % 1033,3 hPa 0,0 l/m 0,0 km/h (0 Bft) S-SO 157 -9,6 C -2,7 C 0,0 km/h (0 Bft)
09.02.2023 01:39 11,6 C -2,7 C -2,6 C 45 % 59 % 1033,3 hPa 0,0 l/m 0,0 km/h (0 Bft) S-SO 157 -9,6 C -2,7 C 0,0 km/h (0 Bft)
09.02.2023 01:38 11,6 C -2,7 C -2,4 C 45 % 59 % 1033,3 hPa 0,0 l/m 0,0 km/h (0 Bft) O-SO 112 -9,6 C -2,7 C 0,0 km/h (0 Bft)
09.02.2023 01:37 11,6 C -2,7 C -2,4 C 45 % 59 % 1033,3 hPa 0,0 l/m 0,0 km/h (0 Bft) O-SO 112 -9,6 C -2,7 C 0,0 km/h (0 Bft)
09.02.2023 01:36 11,8 C -2,7 C -2,6 C 45 % 59 % 1033,3 hPa 0,0 l/m 0,0 km/h (0 Bft) O 90 -9,6 C -2,7 C 0,0 km/h (0 Bft)
09.02.2023 01:35 11,8 C -2,7 C -2,6 C 45 % 59 % 1033,3 hPa 0,0 l/m 0,0 km/h (0 Bft) O 90 -9,6 C -2,7 C 0,0 km/h (0 Bft)
09.02.2023 01:34 11,8 C -2,7 C -2,6 C 45 % 59 % 1033,3 hPa 0,0 l/m 0,0 km/h (0 Bft) O 90 -9,6 C -2,7 C 0,0 km/h (0 Bft)
09.02.2023 01:33 11,8 C -2,7 C -2,6 C 45 % 59 % 1033,3 hPa 0,0 l/m 0,0 km/h (0 Bft) O 90 -9,6 C -2,7 C 0,0 km/h (0 Bft)
09.02.2023 01:32 11,8 C -2,7 C -2,7 C 45 % 59 % 1033,5 hPa 0,0 l/m 0,0 km/h (0 Bft) S 180 -9,6 C -2,7 C 2,1 km/h (1 Bft)
09.02.2023 01:31 11,8 C -2,7 C -2,7 C 45 % 59 % 1033,5 hPa 0,0 l/m 0,0 km/h (0 Bft) S 180 -9,6 C -2,7 C 2,1 km/h (1 Bft)
09.02.2023 01:30 11,8 C -2,7 C -2,4 C 45 % 59 % 1033,5 hPa 0,0 l/m 0,8 km/h (0 Bft) O 90 -9,6 C -2,7 C 0,0 km/h (0 Bft)
09.02.2023 01:29 11,8 C -2,7 C -2,4 C 45 % 59 % 1033,5 hPa 0,0 l/m 0,8 km/h (0 Bft) O 90 -9,6 C -2,7 C 0,0 km/h (0 Bft)
09.02.2023 01:28 11,8 C -2,7 C -2,6 C 45 % 59 % 1033,5 hPa 0,0 l/m 0,8 km/h (0 Bft) O 90 -9,6 C -2,7 C 0,0 km/h (0 Bft)
09.02.2023 01:27 11,8 C -2,7 C -2,6 C 45 % 59 % 1033,5 hPa 0,0 l/m 0,8 km/h (0 Bft) O 90 -9,6 C -2,7 C 0,0 km/h (0 Bft)
09.02.2023 01:26 11,8 C -2,7 C -2,6 C 45 % 59 % 1033,5 hPa 0,0 l/m 0,8 km/h (0 Bft) O 90 -9,6 C -2,7 C 0,0 km/h (0 Bft)
09.02.2023 01:25 11,8 C -2,7 C -2,6 C 45 % 59 % 1033,5 hPa 0,0 l/m 0,8 km/h (0 Bft) O 90 -9,6 C -2,7 C 0,0 km/h (0 Bft)
09.02.2023 01:24 11,8 C -2,7 C -2,6 C 45 % 59 % 1033,5 hPa 0,0 l/m 0,8 km/h (0 Bft) O-SO 112 -9,6 C -2,7 C 0,0 km/h (0 Bft)
09.02.2023 01:23 11,8 C -2,7 C -2,6 C 45 % 59 % 1033,5 hPa 0,0 l/m 0,8 km/h (0 Bft) O-SO 112 -9,6 C -2,7 C 0,0 km/h (0 Bft)
09.02.2023 01:22 11,8 C -2,7 C -2,3 C 44 % 59 % 1033,5 hPa 0,0 l/m 0,8 km/h (0 Bft) O 90 -9,6 C -2,7 C 24,1 km/h (4 Bft)
09.02.2023 01:21 11,8 C -2,7 C -2,3 C 44 % 59 % 1033,5 hPa 0,0 l/m 0,8 km/h (0 Bft) O 90 -9,6 C -2,7 C 0,0 km/h (0 Bft)
09.02.2023 01:20 11,9 C -2,7 C -2,6 C 44 % 59 % 1033,5 hPa 0,0 l/m 0,0 km/h (0 Bft) NO 45 -9,6 C -2,7 C 0,0 km/h (0 Bft)
09.02.2023 01:19 11,9 C -2,7 C -2,6 C 44 % 59 % 1033,5 hPa 0,0 l/m 0,0 km/h (0 Bft) NO 45 -9,6 C -2,7 C 0,0 km/h (0 Bft)
09.02.2023 01:18 11,9 C -2,7 C -2,6 C 45 % 59 % 1033,5 hPa 0,0 l/m 0,0 km/h (0 Bft) O-SO 112 -9,6 C -2,7 C 2,3 km/h (1 Bft)
09.02.2023 01:17 11,9 C -2,7 C -2,6 C 45 % 59 % 1033,5 hPa 0,0 l/m 0,0 km/h (0 Bft) O-SO 112 -9,6 C -2,7 C 2,3 km/h (1 Bft)
09.02.2023 01:16 11,9 C -2,7 C -2,7 C 44 % 59 % 1033,5 hPa 0,0 l/m 0,0 km/h (0 Bft) N 360 -9,6 C -2,7 C 0,0 km/h (0 Bft)
09.02.2023 01:15 11,9 C -2,7 C -2,7 C 44 % 59 % 1033,5 hPa 0,0 l/m 0,0 km/h (0 Bft) N 360 -9,6 C -2,7 C 0,0 km/h (0 Bft)
09.02.2023 01:14 11,9 C -2,7 C -2,7 C 44 % 59 % 1033,5 hPa 0,0 l/m 0,0 km/h (0 Bft) O 90 -9,6 C -2,7 C 0,0 km/h (0 Bft)
09.02.2023 01:13 11,9 C -2,7 C -2,7 C 44 % 59 % 1033,5 hPa 0,0 l/m 0,0 km/h (0 Bft) O 90 -9,6 C -2,7 C 0,0 km/h (0 Bft)
09.02.2023 01:12 11,9 C -2,7 C -2,6 C 44 % 59 % 1033,7 hPa 0,0 l/m 0,0 km/h (0 Bft) O 90 -9,6 C -2,7 C 0,0 km/h (0 Bft)
09.02.2023 01:11 11,9 C -2,7 C -2,6 C 44 % 59 % 1033,7 hPa 0,0 l/m 0,0 km/h (0 Bft) O 90 -9,6 C -2,7 C 0,0 km/h (0 Bft)
09.02.2023 01:10 11,9 C -2,7 C -2,7 C 44 % 59 % 1033,7 hPa 0,0 l/m 0,0 km/h (0 Bft) O 90 -9,6 C -2,7 C 0,0 km/h (0 Bft)
09.02.2023 01:09 11,9 C -2,7 C -2,7 C 44 % 59 % 1033,7 hPa 0,0 l/m 0,0 km/h (0 Bft) O 90 -9,6 C -2,7 C 0,0 km/h (0 Bft)
09.02.2023 01:08 11,9 C -2,7 C -2,7 C 44 % 59 % 1033,7 hPa 0,0 l/m 0,2 km/h (0 Bft) O-SO 112 -9,6 C -2,7 C 0,0 km/h (0 Bft)
09.02.2023 01:07 11,9 C -2,7 C -2,7 C 44 % 59 % 1033,7 hPa 0,0 l/m 0,2 km/h (0 Bft) O-SO 112 -9,6 C -2,7 C 0,0 km/h (0 Bft)
09.02.2023 01:06 11,8 C -2,7 C -2,7 C 44 % 59 % 1033,7 hPa 0,0 l/m 0,5 km/h (0 Bft) O-SO 112 -9,6 C -2,7 C 0,0 km/h (0 Bft)
09.02.2023 01:05 11,8 C -2,7 C -2,7 C 44 % 59 % 1033,7 hPa 0,0 l/m 0,5 km/h (0 Bft) O-SO 112 -9,6 C -2,7 C 0,0 km/h (0 Bft)
09.02.2023 01:04 12,0 C -2,7 C -2,6 C 44 % 59 % 1033,7 hPa 0,0 l/m 0,5 km/h (0 Bft) W-SW 247 -9,6 C -2,7 C 0,0 km/h (0 Bft)
09.02.2023 01:03 12,0 C -2,7 C -2,6 C 44 % 59 % 1033,7 hPa 0,0 l/m 0,5 km/h (0 Bft) W-SW 247 -9,6 C -2,7 C 0,0 km/h (0 Bft)
09.02.2023 01:02 12,0 C -2,7 C -2,6 C 44 % 59 % 1033,7 hPa 0,0 l/m 0,6 km/h (0 Bft) O 90 -9,6 C -2,7 C 16,1 km/h (3 Bft)
09.02.2023 01:01 12,0 C -2,7 C -2,6 C 44 % 59 % 1033,7 hPa 0,0 l/m 0,6 km/h (0 Bft) O 90 -9,6 C -2,7 C 0,0 km/h (0 Bft)
09.02.2023 01:00 12,0 C -2,7 C -2,6 C 44 % 59 % 1033,7 hPa 0,0 l/m 0,6 km/h (0 Bft) O-SO 112 -9,6 C -2,7 C 0,0 km/h (0 Bft)
09.02.2023 00:59 12,0 C -2,7 C -2,6 C 44 % 59 % 1033,7 hPa 0,0 l/m 0,6 km/h (0 Bft) O-SO 112 -9,6 C -2,7 C 0,0 km/h (0 Bft)
09.02.2023 00:58 12,0 C -2,7 C -2,4 C 44 % 59 % 1033,7 hPa 0,0 l/m 0,6 km/h (0 Bft) O-NO 67 -9,6 C -2,7 C 0,0 km/h (0 Bft)
09.02.2023 00:57 12,0 C -2,7 C -2,4 C 44 % 59 % 1033,7 hPa 0,0 l/m 0,6 km/h (0 Bft) O-NO 67 -9,6 C -2,7 C 0,0 km/h (0 Bft)
09.02.2023 00:56 12,0 C -2,7 C -2,7 C 44 % 59 % 1033,7 hPa 0,0 l/m 0,2 km/h (0 Bft) O 90 -9,6 C -2,7 C 3,1 km/h (1 Bft)
09.02.2023 00:55 12,0 C -2,7 C -2,7 C 44 % 59 % 1033,7 hPa 0,0 l/m 0,2 km/h (0 Bft) O 90 -9,6 C -2,7 C 3,1 km/h (1 Bft)
09.02.2023 00:54 11,9 C -2,6 C -2,6 C 44 % 59 % 1033,7 hPa 0,0 l/m 0,2 km/h (0 Bft) O-SO 112 -9,5 C -2,6 C 0,0 km/h (0 Bft)
09.02.2023 00:53 11,9 C -2,6 C -2,6 C 44 % 59 % 1033,7 hPa 0,0 l/m 0,2 km/h (0 Bft) O-SO 112 -9,5 C -2,6 C 0,0 km/h (0 Bft)
09.02.2023 00:52 11,9 C -2,6 C -2,6 C 44 % 59 % 1034,0 hPa 0,0 l/m 0,2 km/h (0 Bft) O 90 -9,5 C -2,6 C 0,0 km/h (0 Bft)
09.02.2023 00:51 11,9 C -2,6 C -2,6 C 44 % 59 % 1034,0 hPa 0,0 l/m 0,2 km/h (0 Bft) O 90 -9,5 C -2,6 C 0,0 km/h (0 Bft)
09.02.2023 00:50 11,9 C -2,6 C -2,6 C 44 % 59 % 1034,0 hPa 0,0 l/m 0,2 km/h (0 Bft) O-NO 67 -9,5 C -2,6 C 0,0 km/h (0 Bft)
09.02.2023 00:49 11,9 C -2,6 C -2,6 C 44 % 59 % 1034,0 hPa 0,0 l/m 0,2 km/h (0 Bft) O-NO 67 -9,5 C -2,6 C 0,0 km/h (0 Bft)
09.02.2023 00:48 11,9 C -2,6 C -2,6 C 44 % 59 % 1034,0 hPa 0,0 l/m 0,2 km/h (0 Bft) O-SO 112 -9,5 C -2,6 C 0,0 km/h (0 Bft)
09.02.2023 00:47 11,9 C -2,6 C -2,6 C 44 % 59 % 1034,0 hPa 0,0 l/m 0,2 km/h (0 Bft) O-SO 112 -9,5 C -2,6 C 0,0 km/h (0 Bft)
09.02.2023 00:46 12,1 C -2,6 C -2,6 C 44 % 59 % 1034,0 hPa 0,0 l/m 0,2 km/h (0 Bft) O 90 -9,5 C -2,6 C 0,0 km/h (0 Bft)
09.02.2023 00:45 12,1 C -2,6 C -2,6 C 44 % 59 % 1034,0 hPa 0,0 l/m 0,2 km/h (0 Bft) O 90 -9,5 C -2,6 C 0,0 km/h (0 Bft)
09.02.2023 00:44 12,1 C -2,6 C -2,6 C 44 % 59 % 1034,0 hPa 0,0 l/m 0,3 km/h (0 Bft) O-NO 67 -9,5 C -2,6 C 0,0 km/h (0 Bft)
09.02.2023 00:43 12,1 C -2,6 C -2,6 C 44 % 59 % 1034,0 hPa 0,0 l/m 0,3 km/h (0 Bft) O-NO 67 -9,5 C -2,6 C 0,0 km/h (0 Bft)
09.02.2023 00:42 12,1 C -2,6 C -2,6 C 44 % 59 % 1034,0 hPa 0,0 l/m 0,3 km/h (0 Bft) O-SO 112 -9,5 C -2,6 C 2,9 km/h (1 Bft)
09.02.2023 00:41 12,1 C -2,6 C -2,6 C 44 % 59 % 1034,0 hPa 0,0 l/m 0,3 km/h (0 Bft) O-SO 112 -9,5 C -2,6 C 0,0 km/h (0 Bft)
09.02.2023 00:40 12,1 C -2,6 C -2,4 C 44 % 59 % 1034,0 hPa 0,0 l/m 0,3 km/h (0 Bft) SO 135 -9,5 C -2,6 C 2,3 km/h (1 Bft)
09.02.2023 00:39 12,1 C -2,6 C -2,4 C 44 % 59 % 1034,0 hPa 0,0 l/m 0,3 km/h (0 Bft) SO 135 -9,5 C -2,6 C 2,3 km/h (1 Bft)
09.02.2023 00:38 12,1 C -2,4 C -2,4 C 44 % 59 % 1034,0 hPa 0,0 l/m 0,3 km/h (0 Bft) O 90 -9,3 C -2,4 C 0,0 km/h (0 Bft)
09.02.2023 00:37 12,1 C -2,4 C -2,4 C 44 % 59 % 1034,0 hPa 0,0 l/m 0,3 km/h (0 Bft) O 90 -9,3 C -2,4 C 0,0 km/h (0 Bft)
09.02.2023 00:36 12,2 C -2,4 C -2,3 C 44 % 59 % 1034,0 hPa 0,0 l/m 0,2 km/h (0 Bft) O 90 -9,3 C -2,4 C 0,0 km/h (0 Bft)
09.02.2023 00:35 12,2 C -2,4 C -2,3 C 44 % 59 % 1034,0 hPa 0,0 l/m 0,2 km/h (0 Bft) O 90 -9,3 C -2,4 C 0,0 km/h (0 Bft)
09.02.2023 00:34 12,2 C -2,4 C -2,2 C 44 % 59 % 1034,0 hPa 0,0 l/m 0,2 km/h (0 Bft) O 90 -9,3 C -2,4 C 0,0 km/h (0 Bft)
09.02.2023 00:33 12,2 C -2,4 C -2,2 C 44 % 59 % 1034,0 hPa 0,0 l/m 0,2 km/h (0 Bft) O 90 -9,3 C -2,4 C 0,0 km/h (0 Bft)
09.02.2023 00:32 12,2 C -2,4 C -2,0 C 44 % 59 % 1034,1 hPa 0,0 l/m 0,2 km/h (0 Bft) N-NO 22 -9,3 C -2,4 C 2,5 km/h (1 Bft)
09.02.2023 00:31 12,2 C -2,4 C -2,0 C 44 % 59 % 1034,1 hPa 0,0 l/m 0,2 km/h (0 Bft) N-NO 22 -9,3 C -2,4 C 0,0 km/h (0 Bft)
09.02.2023 00:30 12,2 C -2,4 C -2,2 C 44 % 59 % 1034,1 hPa 0,0 l/m 0,2 km/h (0 Bft) N-NO 22 -9,3 C -2,4 C 0,0 km/h (0 Bft)
09.02.2023 00:29 12,2 C -2,4 C -2,2 C 44 % 59 % 1034,1 hPa 0,0 l/m 0,2 km/h (0 Bft) N-NO 22 -9,3 C -2,4 C 0,0 km/h (0 Bft)
09.02.2023 00:28 12,2 C -2,4 C -2,0 C 44 % 59 % 1034,1 hPa 0,0 l/m 0,2 km/h (0 Bft) O 90 -9,3 C -2,4 C 2,1 km/h (1 Bft)
09.02.2023 00:27 12,2 C -2,4 C -2,0 C 44 % 59 % 1034,1 hPa 0,0 l/m 0,2 km/h (0 Bft) O 90 -9,3 C -2,4 C 2,1 km/h (1 Bft)
09.02.2023 00:26 12,2 C -2,4 C -2,2 C 44 % 59 % 1034,1 hPa 0,0 l/m 0,2 km/h (0 Bft) NO 45 -9,3 C -2,4 C 0,0 km/h (0 Bft)
09.02.2023 00:25 12,2 C -2,4 C -2,2 C 44 % 59 % 1034,1 hPa 0,0 l/m 0,2 km/h (0 Bft) NO 45 -9,3 C -2,4 C 0,0 km/h (0 Bft)
09.02.2023 00:24 12,3 C -2,4 C -2,4 C 44 % 59 % 1034,1 hPa 0,0 l/m 0,2 km/h (0 Bft) S 180 -9,3 C -2,4 C 0,0 km/h (0 Bft)
09.02.2023 00:23 12,3 C -2,4 C -2,4 C 44 % 59 % 1034,1 hPa 0,0 l/m 0,2 km/h (0 Bft) S 180 -9,3 C -2,4 C 0,0 km/h (0 Bft)
09.02.2023 00:22 12,3 C -2,4 C -2,3 C 44 % 59 % 1034,1 hPa 0,0 l/m 0,2 km/h (0 Bft) O 90 -9,3 C -2,4 C 2,3 km/h (1 Bft)
09.02.2023 00:21 12,3 C -2,4 C -2,3 C 44 % 59 % 1034,1 hPa 0,0 l/m 0,2 km/h (0 Bft) O 90 -9,3 C -2,4 C 0,0 km/h (0 Bft)
09.02.2023 00:20 12,3 C -2,4 C -2,3 C 44 % 59 % 1034,1 hPa 0,0 l/m 0,2 km/h (0 Bft) O-NO 67 -9,3 C -2,4 C 0,0 km/h (0 Bft)
09.02.2023 00:19 12,3 C -2,4 C -2,3 C 44 % 59 % 1034,1 hPa 0,0 l/m 0,2 km/h (0 Bft) O-NO 67 -9,3 C -2,4 C 0,0 km/h (0 Bft)
09.02.2023 00:18 12,3 C -2,4 C -2,2 C 44 % 59 % 1034,1 hPa 0,0 l/m 0,2 km/h (0 Bft) O 90 -9,3 C -2,4 C 0,0 km/h (0 Bft)
09.02.2023 00:17 12,3 C -2,4 C -2,2 C 44 % 59 % 1034,1 hPa 0,0 l/m 0,2 km/h (0 Bft) O 90 -9,3 C -2,4 C 0,0 km/h (0 Bft)
09.02.2023 00:16 12,2 C -2,4 C -2,2 C 44 % 59 % 1034,1 hPa 0,0 l/m 0,2 km/h (0 Bft) O 90 -9,3 C -2,4 C 0,0 km/h (0 Bft)
09.02.2023 00:15 12,2 C -2,4 C -2,2 C 44 % 59 % 1034,1 hPa 0,0 l/m 0,2 km/h (0 Bft) O 90 -9,3 C -2,4 C 0,0 km/h (0 Bft)
09.02.2023 00:14 12,4 C -2,4 C -2,2 C 44 % 59 % 1034,1 hPa 0,0 l/m 0,2 km/h (0 Bft) O 90 -9,3 C -2,4 C 0,0 km/h (0 Bft)
09.02.2023 00:13 12,4 C -2,4 C -2,2 C 44 % 59 % 1034,1 hPa 0,0 l/m 0,2 km/h (0 Bft) O 90 -9,3 C -2,4 C 0,0 km/h (0 Bft)
09.02.2023 00:12 12,4 C -2,4 C -2,2 C 44 % 59 % 1034,4 hPa 0,0 l/m 0,0 km/h (0 Bft) O 90 -9,3 C -2,4 C 0,0 km/h (0 Bft)
09.02.2023 00:11 12,4 C -2,4 C -2,2 C 44 % 59 % 1034,4 hPa 0,0 l/m 0,0 km/h (0 Bft) O 90 -9,3 C -2,4 C 0,0 km/h (0 Bft)
09.02.2023 00:10 12,4 C -2,4 C -2,3 C 44 % 59 % 1034,4 hPa 0,0 l/m 0,0 km/h (0 Bft) O 90 -9,3 C -2,4 C 0,0 km/h (0 Bft)
09.02.2023 00:09 12,4 C -2,4 C -2,3 C 44 % 59 % 1034,4 hPa 0,0 l/m 0,0 km/h (0 Bft) O 90 -9,3 C -2,4 C 0,0 km/h (0 Bft)
09.02.2023 00:08 12,4 C -2,4 C -2,3 C 44 % 59 % 1034,4 hPa 0,0 l/m 0,0 km/h (0 Bft) O-NO 67 -9,3 C -2,4 C 0,0 km/h (0 Bft)
09.02.2023 00:07 12,4 C -2,4 C -2,3 C 44 % 59 % 1034,4 hPa 0,0 l/m 0,0 km/h (0 Bft) O-NO 67 -9,3 C -2,4 C 0,0 km/h (0 Bft)
09.02.2023 00:06 12,4 C -2,4 C -2,2 C 44 % 60 % 1034,4 hPa 0,0 l/m 2,7 km/h (1 Bft) O-NO 67 -9,1 C -2,4 C 2,1 km/h (1 Bft)
09.02.2023 00:05 12,4 C -2,4 C -2,2 C 44 % 60 % 1034,4 hPa 0,0 l/m 2,7 km/h (1 Bft) O-NO 67 -9,1 C -2,4 C 2,1 km/h (1 Bft)
09.02.2023 00:04 12,4 C -2,4 C -2,2 C 44 % 60 % 1034,4 hPa 0,0 l/m 3,9 km/h (1 Bft) O-SO 112 -9,1 C -2,4 C 0,0 km/h (0 Bft)
09.02.2023 00:03 12,4 C -2,4 C -2,2 C 44 % 60 % 1034,4 hPa 0,0 l/m 3,9 km/h (1 Bft) O-SO 112 -9,1 C -2,4 C 0,0 km/h (0 Bft)
09.02.2023 00:02 12,3 C -2,4 C -2,2 C 44 % 60 % 1034,4 hPa 0,0 l/m 3,9 km/h (1 Bft) O 90 -9,1 C -2,4 C 0,0 km/h (0 Bft)
09.02.2023 00:01 12,3 C -2,4 C -2,2 C 44 % 60 % 1034,4 hPa 0,0 l/m 3,9 km/h (1 Bft) O 90 -9,1 C -2,4 C 0,0 km/h (0 Bft)
09.02.2023 00:00 12,3 C -2,4 C -2,3 C 44 % 60 % 1034,4 hPa 0,0 l/m 3,9 km/h (1 Bft) O 90 -9,1 C -2,4 C 0,0 km/h (0 Bft)
_ Min-Zeit 02:53 02:39 02:33 00:00 00:07 03:13 - 00:07 - - 02:39 02:39 00:00
Minimum _ 11,2 C -3,1 C -3,1 C 44 % 59 % 1031,9 hPa - 0,0 km/h (0 Bft) - - -10,0 C -3,1 C 0,0 km/h (0 Bft)
_ Max-Zeit 00:03 00:00 00:27 01:17 00:00 00:00 00:00 00:00 - - 00:00 00:00 01:22
Maximum _ 12,4 C -2,4 C -2,0 C 45 % 60 % 1034,4 hPa 0,0 l/m 3,9 km/h
O (1 Bft)
- - -9,1 C -2,4 C 24,1 km/h
O (4 Bft)
Durchschnitt _ 11,8 C -2,7 C -2,6 C 45 % 59 % 1033,3 hPa #0,0 l/m 0,3 km/h (0 Bft) O - -9,6 C -2,7 C 0,5 km/h (0 Bft)